Weather Roundup
Issued by NWS Corpus Christi, TX

Home | Current Version | Previous Version | Text Only | Print | Product List | Glossary On
Versions: 1 2 3 4 5 6 7 8 9 10 11 12 13 14 15 16 17 18 19 20 21 22 23 24 25 26 27 28 29 30 31 32 33 34 35 36 37 38 39 40 41 42 43 44 45 46 47 48 49 50
310
ASUS44 KCRP 220410
HRRCRP

SOUTH TEXAS REGIONAL WEATHER ROUNDUP
NATIONAL WEATHER SERVICE CORPUS CHRISTI TX
1000 PM CST TUE NOV 21 2017


TXZ229>244-220500-
...CORPUS CHRISTI AREA OBSERVATIONS...

CITY           SKY/WX    TMP DP  RH WIND       PRES   REMARKS
CORPUS CHRISTI PTCLDY    65  65 100 NE6       29.96R
NAS CORPUS CHR PTCLDY    71  69  93 NE7       29.95R
ROCKPORT       PTCLDY    67  66  97 NE5       29.96R
KINGSVILLE ARP FAIR      65  64  99 NW3       29.97R
KINGSVILLE NAS PTCLDY    64  64 100 N6        29.96R
ALICE          CLEAR     62  59  90 N6        29.97R
$$

...VICTORIA AREA OBSERVATIONS...

CITY           SKY/WX    TMP DP  RH WIND       PRES   REMARKS
PORT LAVACA    CLOUDY    64  61  91 NW6       29.97R
VICTORIA       CLOUDY    66  56  70 N10       29.98R
BEEVILLE       FAIR      60  58  93 NE3       29.99R
PLEASANTON     NOT AVBL
SAN ANTONIO    PTCLDY    63  46  54 N17G25    30.08R
$$

...LAREDO AREA OBSERVATIONS...

CITY           SKY/WX    TMP DP  RH WIND       PRES   REMARKS
LAREDO         CLEAR     68  40  35 N20G28    30.03R
COTULLA        CLEAR     64  35  34 N12       30.05R
DEL RIO        CLEAR     65  33  30 NW9       30.14R
MCALLEN        MOCLDY    69  63  81 W5        29.93R
HEBBRONVILLE   CLEAR     60  49  68 N6        30.00R
$$

...OTHER TEXAS OBSERVATIONS...

CITY           SKY/WX    TMP DP  RH WIND       PRES   REMARKS
BROWNSVILLE    CLOUDY    70  66  87 NW6       29.91R
HOUSTON        MOCLDY    62  59  90 NE13      30.04R
COL. STATION   CLOUDY    62  59  90 NE13      30.08R
AUSTIN         MOCLDY    63  50  62 N23       30.08R
WACO           MOCLDY    60  48  64 N13       30.14R
FORT WORTH     CLEAR     57  38  48 N20       30.19R
WICHITA FALLS  CLEAR     49  27  42 N24G33    30.31R
LUBBOCK        CLEAR     43  24  47 N7        30.37R
EL PASO        PTCLDY    61  19  19 CALM      30.29R
$$

...MARINE OBSERVATIONS...

STATION/POSITION TIME  SKY/WX   TEMP    WIND        PRES    VSBY  WAVE   SWELL
                                AIR SEA DIR/SP/G                  HT/PER HT/PER
                 (UTC)          (F)     (DEG/KT/KT) (MB)    (MI)  (FT/S) (FT/S)
PORT ARANSAS     NOT AVBL
BUOY 90 E PORT A 0350            74 78   40/ 14/ 16 1013.7R         3/ 5
BUOY 200 E PT IS 0350            73 79   30/  2/  6 1012.5F         3/ 4   2/ 4
BUOY 15 E GALVES 0250            66 70   40/ 19/ 23 1014.4          4/ 5
$$




USA.gov is the U.S. government's official web portal to all federal, state and local government web resources and services.